| time (UTC) | temp F | wind direction | speed MPH | gust MPH | rain 1hr in | rain 24hr in | rain mn in | humidity % | barometer mb |
| 20260510061522 | 52 | 139 | 0.0 | 1.0 | 0.00 | 0.70 | 0.00 | 94 | 1011.4 |
| 20260510060035 | 52 | 139 | 0.0 | 2.0 | 0.00 | 0.70 | 0.00 | 94 | 1011.2 |
| 20260510054529 | 52 | 187 | 0.0 | 1.0 | 0.00 | 0.70 | 0.00 | 94 | 1011.6 |
| 20260510053018 | 52 | 170 | 0.0 | 1.0 | 0.00 | 0.70 | 0.00 | 93 | 1011.6 |
| 20260510051517 | 52 | 170 | 0.0 | 2.0 | 0.00 | 0.70 | 0.00 | 93 | 1011.3 |
| 20260510050015 | 52 | 156 | 0.0 | 1.0 | 0.00 | 0.70 | 0.00 | 93 | 1011.2 |
| 20260510044516 | 52 | 248 | 0.0 | 1.0 | 0.00 | 0.70 | 0.00 | 93 | 1011.0 |
| 20260510043014 | 52 | 162 | 0.0 | 1.0 | 0.00 | 0.70 | 0.00 | 93 | 1011.0 |
| 20260510041512 | 52 | 201 | 1.0 | 3.0 | 0.00 | 0.70 | 0.00 | 93 | 1011.2 |
| 20260510040011 | 52 | 248 | 0.0 | 1.0 | 0.00 | 0.70 | 0.00 | 93 | 1011.2 |
| 20260510034519 | 52 | 99 | 0.0 | 2.0 | 0.00 | 0.70 | 0.70 | 93 | 1011.1 |
| 20260510033009 | 52 | 195 | 0.0 | 4.0 | 0.00 | 0.70 | 0.70 | 93 | 1011.3 |
| 20260510031510 | 52 | 150 | 0.0 | 1.0 | 0.00 | 0.70 | 0.70 | 93 | 1011.3 |
| 20260510030108 | 52 | 55 | 0.0 | 1.0 | 0.00 | 0.70 | 0.70 | 93 | 1011.4 |
| 20260510024508 | 52 | 143 | 0.0 | 1.0 | 0.00 | 0.70 | 0.70 | 93 | 1011.5 |
| 20260510023006 | 52 | 125 | 0.0 | 1.0 | 0.00 | 0.70 | 0.70 | 93 | 1011.5 |
| 20260510021506 | 52 | 154 | 0.0 | 1.0 | 0.00 | 0.70 | 0.70 | 93 | 1011.6 |
| 20260510020005 | 52 | 116 | 0.0 | 1.0 | 0.00 | 0.70 | 0.70 | 94 | 1011.8 |
| 20260510014507 | 52 | 101 | 0.0 | 1.0 | 0.03 | 0.70 | 0.70 | 94 | 1011.7 |
| 20260510013007 | 52 | 104 | 0.0 | 2.0 | 0.06 | 0.70 | 0.70 | 93 | 1011.7 |
| 20260510011507 | 52 | 153 | 0.0 | 2.0 | 0.06 | 0.70 | 0.70 | 93 | 1011.8 |
| 20260510010005 | 52 | 113 | 0.0 | 3.0 | 0.06 | 0.70 | 0.70 | 93 | 1011.8 |
| 20260510004503 | 52 | 77 | 1.0 | 3.0 | 0.03 | 0.67 | 0.67 | 93 | 1012.2 |
| 20260510003004 | 51 | 41 | 0.0 | 1.0 | 0.00 | 0.64 | 0.64 | 93 | 1011.8 |
| 20260510001502 | 51 | 132 | 0.0 | 1.0 | 0.00 | 0.64 | 0.64 | 92 | 1011.4 |
| 20260510000001 | 52 | 130 | 0.0 | 2.0 | 0.01 | 0.64 | 0.64 | 91 | 1011.3 |
| 20260509234502 | 52 | 180 | 0.0 | 3.0 | 0.04 | 0.64 | 0.64 | 91 | 1011.5 |
| 20260509233059 | 52 | 120 | 0.0 | 4.0 | 0.08 | 0.64 | 0.64 | 91 | 1011.6 |
| 20260509231605 | 53 | 229 | 0.0 | 4.0 | 0.10 | 0.64 | 0.64 | 91 | 1011.9 |
| 20260509224601 | 54 | 244 | 1.0 | 4.0 | 0.07 | 0.60 | 0.60 | 92 | 1012.2 |
| 20260509223058 | 55 | 258 | 0.0 | 3.0 | 0.04 | 0.56 | 0.56 | 93 | 1012.4 |
| 20260509221602 | 55 | 236 | 0.0 | 3.0 | 0.03 | 0.54 | 0.54 | 93 | 1012.2 |
| 20260509220106 | 55 | 310 | 0.0 | 1.0 | 0.04 | 0.54 | 0.54 | 94 | 1012.1 |
| 20260509214602 | 55 | 262 | 0.0 | 2.0 | 0.10 | 0.53 | 0.53 | 94 | 1012.2 |
| 20260509213124 | 54 | 308 | 0.0 | 1.0 | 0.15 | 0.52 | 0.52 | 94 | 1012.2 |
| 20260509211555 | 54 | 349 | 0.0 | 7.0 | 0.35 | 0.51 | 0.51 | 93 | 1012.1 |
| 20260509210105 | 55 | 208 | 1.0 | 6.0 | 0.47 | 0.50 | 0.50 | 92 | 1012.1 |
| 20260509205152 | 56 | 227 | 1.0 | 3.0 | 0.44 | 0.46 | 0.46 | 93 | 1012.1 |
| 20260509204632 | 55 | 95 | 0.0 | 3.0 | 0.41 | 0.43 | 0.43 | 93 | 1012.0 |
| 20260509204146 | 56 | 271 | 1.0 | 3.0 | 0.38 | 0.40 | 0.40 | 92 | 1011.9 |
| 20260509203239 | 56 | 128 | 0.0 | 4.0 | 0.35 | 0.37 | 0.37 | 92 | 1011.9 |
| 20260509201530 | 56 | 262 | 1.0 | 5.0 | 0.14 | 0.15 | 0.15 | 90 | 1012.0 |
| 20260509200030 | 57 | 233 | 2.0 | 8.0 | 0.02 | 0.03 | 0.03 | 86 | 1012.1 |
| 20260509194531 | 58 | 302 | 4.0 | 11.0 | 0.01 | 0.02 | 0.02 | 84 | 1011.8 |
| 20260509193029 | 58 | 206 | 3.0 | 16.0 | 0.01 | 0.02 | 0.02 | 84 | 1011.3 |
| 20260509191527 | 60 | 312 | 3.0 | 12.0 | 0.00 | 0.01 | 0.01 | 75 | 1011.5 |
| 20260509190026 | 61 | 166 | 2.0 | 9.0 | 0.00 | 0.01 | 0.01 | 70 | 1011.5 |
| 20260509184525 | 61 | 198 | 3.0 | 7.0 | 0.00 | 0.01 | 0.01 | 68 | 1011.8 |
| 20260509183021 | 61 | 222 | 4.0 | 9.0 | 0.00 | 0.01 | 0.01 | 71 | 1011.9 |
| 20260509181519 | 60 | 189 | 3.0 | 7.0 | 0.00 | 0.01 | 0.01 | 76 | 1012.0 |
| 20260509180015 | 58 | 82 | 1.0 | 5.0 | 0.00 | 0.01 | 0.01 | 76 | 1011.9 |
| 20260509174513 | 57 | 156 | 1.0 | 6.0 | 0.00 | 0.01 | 0.01 | 78 | 1012.1 |
| 20260509173008 | 56 | 180 | 3.0 | 7.0 | 0.00 | 0.01 | 0.01 | 79 | 1012.2 |
| 20260509171506 | 56 | 87 | 1.0 | 6.0 | 0.00 | 0.01 | 0.01 | 80 | 1012.5 |
| 20260509170012 | 55 | 178 | 2.0 | 6.0 | 0.00 | 0.01 | 0.01 | 80 | 1012.6 |
| 20260509164504 | 55 | 170 | 3.0 | 6.0 | 0.00 | 0.01 | 0.01 | 82 | 1012.9 |
| 20260509163003 | 54 | 171 | 2.0 | 6.0 | 0.00 | 0.01 | 0.01 | 81 | 1013.1 |
| 20260509161500 | 55 | 174 | 2.0 | 5.0 | 0.00 | 0.01 | 0.01 | 81 | 1013.2 |
| 20260509160001 | 55 | 182 | 2.0 | 6.0 | 0.00 | 0.01 | 0.01 | 80 | 1013.3 |
| 20260509154617 | 55 | 132 | 1.0 | 5.0 | 0.00 | 0.01 | 0.01 | 80 | 1013.4 |
| 20260509153105 | 55 | 176 | 1.0 | 4.0 | 0.00 | 0.01 | 0.01 | 81 | 1013.4 |
| 20260509151558 | 55 | 213 | 2.0 | 6.0 | 0.00 | 0.01 | 0.01 | 80 | 1013.5 |
| 20260509150058 | 55 | 105 | 2.0 | 6.0 | 0.00 | 0.01 | 0.01 | 80 | 1013.4 |
| 20260509144601 | 55 | 184 | 2.0 | 6.0 | 0.00 | 0.01 | 0.01 | 78 | 1013.4 |
| 20260509143057 | 55 | 192 | 1.0 | 4.0 | 0.00 | 0.01 | 0.01 | 79 | 1013.3 |
| 20260509141556 | 55 | 182 | 2.0 | 6.0 | 0.00 | 0.01 | 0.01 | 80 | 1013.4 |
| 20260509140104 | 55 | 184 | 2.0 | 8.0 | 0.00 | 0.01 | 0.01 | 80 | 1013.5 |
| 20260509134556 | 55 | 238 | 3.0 | 7.0 | 0.00 | 0.01 | 0.01 | 78 | 1013.6 |
| 20260509133054 | 56 | 156 | 1.0 | 6.0 | 0.00 | 0.01 | 0.01 | 78 | 1013.4 |
| 20260509131551 | 55 | 108 | 1.0 | 5.0 | 0.00 | 0.01 | 0.01 | 80 | 1013.1 |
| 20260509130049 | 54 | 104 | 1.0 | 4.0 | 0.00 | 0.01 | 0.01 | 81 | 1013.7 |
| 20260509124546 | 54 | 151 | 0.0 | 3.0 | 0.00 | 0.01 | 0.01 | 84 | 1014.1 |
| 20260509123043 | 52 | 96 | 0.0 | 2.0 | 0.00 | 0.01 | 0.01 | 87 | 1014.1 |
| 20260509121544 | 51 | 137 | 1.0 | 4.0 | 0.00 | 0.01 | 0.01 | 87 | 1014.3 |
| 20260509120048 | 51 | 151 | 2.0 | 6.0 | 0.00 | 0.01 | 0.01 | 86 | 1014.3 |
| 20260509114538 | 51 | 106 | 0.0 | 4.0 | 0.00 | 0.01 | 0.01 | 87 | 1013.9 |
| 20260509113034 | 51 | 78 | 0.0 | 2.0 | 0.00 | 0.01 | 0.01 | 88 | 1013.8 |
| 20260509111532 | 50 | 16 | 0.0 | 3.0 | 0.00 | 0.01 | 0.01 | 89 | 1013.8 |
| 20260509110035 | 50 | 100 | 0.0 | 2.0 | 0.00 | 0.01 | 0.01 | 90 | 1013.7 |
| 20260509104533 | 49 | 281 | 0.0 | 3.0 | 0.00 | 0.01 | 0.01 | 90 | 1013.9 |
| 20260509103031 | 49 | 125 | 0.0 | 3.0 | 0.00 | 0.01 | 0.01 | 90 | 1013.7 |
| 20260509101539 | 49 | 106 | 0.0 | 2.0 | 0.00 | 0.01 | 0.01 | 90 | 1013.7 |
| 20260509100029 | 49 | 133 | 0.0 | 2.0 | 0.01 | 0.01 | 0.01 | 89 | 1013.9 |
| 20260509094530 | 50 | 54 | 0.0 | 1.0 | 0.01 | 0.01 | 0.01 | 89 | 1013.8 |
| 20260509093028 | 50 | 97 | 0.0 | 1.0 | 0.01 | 0.01 | 0.01 | 89 | 1013.7 |
| 20260509091532 | 50 | 96 | 0.0 | 1.0 | 0.01 | 0.01 | 0.01 | 87 | 1013.7 |
| 20260509090027 | 50 | 192 | 0.0 | 1.0 | 0.00 | 0.00 | 0.00 | 86 | 1013.7 |
| 20260509084530 | 50 | 167 | 1.0 | 2.0 | 0.00 | 0.00 | 0.00 | 86 | 1013.4 |
| 20260509083026 | 50 | 123 | 0.0 | 1.0 | 0.00 | 0.00 | 0.00 | 87 | 1013.5 |
| 20260509081525 | 50 | 152 | 0.0 | 3.0 | 0.00 | 0.00 | 0.00 | 87 | 1013.5 |
| 20260509080023 | 49 | 104 | 0.0 | 6.0 | 0.00 | 0.00 | 0.00 | 88 | 1013.5 |
| 20260509074523 | 49 | 201 | 2.0 | 9.0 | 0.00 | 0.00 | 0.00 | 88 | 1013.6 |
| 20260509073029 | 49 | 194 | 0.0 | 2.0 | 0.00 | 0.00 | 0.00 | 85 | 1013.4 |
| 20260509071518 | 49 | 90 | 0.0 | 1.0 | 0.00 | 0.00 | 0.00 | 84 | 1013.4 |
| 20260509070017 | 49 | 90 | 0.0 | 1.0 | 0.00 | 0.00 | 0.00 | 84 | 1013.3 |
| 20260509064516 | 49 | 90 | 0.0 | 1.0 | 0.00 | 0.00 | 0.00 | 84 | 1013.4 |
| 20260509063019 | 49 | 90 | 0.0 | 1.0 | 0.00 | 0.00 | 0.00 | 84 | 1013.5 |